Lid_Strength_Index
6 6 6 6 6 5 5 5 6 6 6 6 6 6 6 6 6 6 7 5 8 10 8 7 7 8 8 9 10 8 8 8 8 9 9 10 10 9 10 9 10 10 12 12 11 14 16 6 6 10 7 5 4 4
6 6 6 6 6 5 5 5 5 6 6 6 6 6 6 6 6 6 7 4 4 9 8 5 5 5 6 6 8 8 8 8 7 8 8 8 10 9 9 13 8 11 9 10 10 10 6 5 5 4 4 5 4 4
6 6 6 6 6 5 5 5 5 5 6 6 6 6 6 5 5 4 5 5 6 8 7 6 6 4 3 4 4 9 6 6 6 4 7 7 10 7 11 10 9 8 7 9 9 6 6 5 4 4 3 4 3 3
6 6 6 6 5 5 5 5 5 5 5 5 5 4 4 4 4 4 4 4 5 7 9 6 3 4 2 2 3 3 4 3 4 4 7 7 9 6 8 8 8 7 7 8 7 6 6 5 4 4 4 3 3 3
6 6 6 6 6 5 5 5 5 4 4 3 3 3 3 3 3 2 2 2 2 5 8 6 3 2 1 2 3 2 3 4 5 6 7 8 6 6 6 6 8 6 6 8 8 5 5 6 4 3 4 4 3 3
6 6 6 6 6 5 4 3 3 2 2 2 2 1 1 2 2 2 5 1 2 2 6 8 3 3 2 1 2 3 3 4 5 5 5 4 5 6 8 9 6 6 5 4 5 4 4 4 3 3 3 3 4 4
6 6 5 5 4 3 3 2 2 1 1 1 1 1 1 1 0 3 4 1 0 2 5 7 6 3 2 3 2 3 3 4 4 5 5 5 5 5 7 9 6 5 4 4 3 3 5 4 4 3 3 4 4 5
5 4 3 3 2 2 1 1 1 1 1 1 0 0 -0 -0 -0 2 -1 -0 -0 3 4 8 7 5 4 6 6 3 6 4 5 6 5 5 5 5 9 6 5 5 4 4 4 3 3 3 3 4 3 4 4 4
3 3 2 2 1 1 1 0 0 0 -0 -0 -0 -1 -1 1 3 1 -1 -1 -1 3 7 7 9 10 4 7 5 4 4 9 4 7 6 5 8 10 7 6 5 4 5 5 3 3 3 4 5 5 4 4 4 4
2 1 1 1 0 -0 -1 -1 -1 -1 -0 -0 -1 2 4 1 -0 -0 2 4 4 4 4 7 5 8 6 7 7 8 6 8 10 7 5 7 8 5 4 4 3 3 3 3 4 5 5 5 5 4 4 3 3 3
1 1 1 -0 -1 -2 -1 -1 -1 -1 -0 0 3 4 1 -1 1 3 5 6 6 8 6 6 6 8 4 8 7 5 9 9 11 10 9 10 11 7 5 4 3 3 3 3 2 3 3 4 4 4 3 3 3 3
1 0 -1 -1 -1 -1 -1 -1 -1 -1 -0 1 1 0 0 2 4 7 7 7 8 9 7 7 7 5 5 4 6 6 10 8 14 7 10 12 9 5 4 4 3 2 2 2 2 4 3 3 3 3 3 3 3 3
-0 -1 -1 -1 -1 -1 -1 -1 -1 -0 -0 -1 2 4 4 5 10 10 13 9 9 6 7 7 8 6 4 5 6 7 11 12 8 11 13 9 6 4 4 3 3 2 2 2 3 3 3 3 3 3 3 3 2 3
-0 -0 -1 -1 -1 -1 -1 -1 -1 -0 0 4 6 9 8 10 8 8 8 8 6 6 6 6 7 8 5 7 7 12 8 8 13 14 13 8 5 4 3 3 3 3 2 3 3 3 3 3 3 2 2 2 2 3
-0 -0 -1 -1 -1 -1 -1 -0 0 -1 2 5 5 10 8 5 5 5 5 6 6 5 6 7 7 7 8 9 8 8 11 14 12 13 9 6 4 3 3 3 3 3 3 2 2 2 2 2 2 2 2 2 2 3
-1 -0 -1 -1 -1 -0 -0 0 -1 -0 1 4 5 7 4 6 6 6 6 7 5 5 5 7 9 10 9 9 11 12 13 14 11 8 5 4 4 4 3 3 2 2 2 2 2 2 2 2 2 2 2 2 2 3
-1 0 -1 -0 -1 -1 0 -0 0 4 4 6 4 3 4 5 6 6 5 5 4 5 8 7 11 11 7 11 12 10 12 9 6 5 4 3 3 3 3 3 2 2 2 2 2 2 2 1 1 1 3 3 2 2
-1 -1 -1 -1 -0 -0 -1 0 2 4 7 4 5 5 5 4 5 5 4 4 5 6 7 8 6 9 11 12 12 9 6 4 4 4 3 3 3 2 2 2 2 2 2 2 2 1 1 1 2 1 2 2 3 3
-1 -1 -1 -1 0 1 3 2 2 6 4 3 3 3 4 4 3 3 4 4 4 4 5 6 9 10 10 9 8 5 5 4 4 4 3 2 2 3 2 2 2 2 2 2 2 1 1 1 1 1 1 1 2 3
0 0 -0 -0 1 1 5 3 1 5 5 4 3 4 4 4 3 3 4 4 5 6 8 8 9 9 9 6 3 3 3 3 3 4 4 3 2 2 2 2 2 1 1 1 1 5 1 1 0 0 1 2 2 3
1 -1 -0 0 -0 0 2 3 3 3 3 4 3 4 4 3 4 5 5 4 6 7 8 7 6 5 3 3 2 2 2 2 3 3 3 3 2 2 2 1 1 1 1 1 1 2 4 2 1 0 1 1 2 2
0 1 0 0 3 3 3 1 4 3 4 4 4 3 4 5 5 5 5 6 7 7 6 6 5 4 4 3 2 2 2 2 2 3 5 4 3 2 2 2 1 1 1 1 1 2 2 1 0 0 1 2 3 2
2 1 1 3 6 5 6 2 6 5 7 6 4 5 5 4 4 2 6 6 6 5 5 5 4 3 2 2 2 2 1 2 3 3 3 3 1 1 1 1 1 2 2 1 0 1 1 5 3 1 2 2 2 2
2 4 6 6 6 7 4 6 4 6 6 7 7 7 6 5 4 5 8 7 6 5 5 4 4 3 2 2 3 2 2 1 2 2 2 2 2 2 1 1 1 1 1 1 1 1 1 1 4 1 2 2 2 2
7 8 6 8 5 7 8 7 7 8 9 7 8 8 7 5 7 8 8 7 6 6 5 4 4 3 4 3 3 2 1 1 2 2 2 2 1 1 1 1 1 1 0 1 1 1 1 1 1 0 1 2 2 4
10 7 8 7 6 8 8 9 9 8 8 9 8 6 5 7 9 10 8 6 6 5 5 5 5 5 4 3 3 3 2 1 1 2 1 1 1 2 2 2 2 2 0 0 1 1 1 1 1 1 2 4 8 6
11 9 5 3 6 6 7 6 5 6 8 9 7 7 8 10 10 7 5 6 6 5 4 3 3 4 4 3 2 1 0 0 1 1 0 0 0 0 1 2 2 1 -0 0 0 1 1 1 1 1 2 3 3 5
6 6 9 7 7 6 8 7 8 8 7 5 5 9 10 10 9 5 6 5 4 4 3 2 2 2 2 2 1 1 1 0 -0 -0 -0 -0 -0 -0 -0 -0 -0 8 1 -0 0 0 0 1 1 1 2 3 5 4
7 5 5 8 8 7 7 7 7 5 4 5 7 8 7 4 3 4 4 3 2 3 4 3 2 1 1 0 0 0 1 1 2 3 4 3 3 2 -0 -0 -0 -0 -0 -0 7 5 2 2 1 1 3 3 4 4
8 5 7 8 9 9 6 5 6 5 4 4 4 4 4 4 2 0 2 2 3 3 3 2 2 2 2 2 2 1 0 0 1 2 3 3 2 1 0 0 0 0 -0 -0 0 0 8 2 4 3 4 5 6 7
7 7 8 7 8 6 5 4 3 4 4 5 4 5 6 4 2 1 2 2 2 2 2 2 2 2 2 2 2 2 2 1 1 1 2 1 1 1 1 1 1 1 0 -0 0 1 1 0 1 3 4 5 7 8
8 9 8 9 8 6 5 6 6 6 5 5 5 4 4 5 6 4 2 3 4 5 6 4 3 3 2 2 1 1 7 1 2 3 4 3 4 4 4 3 2 2 1 1 1 1 1 1 2 3 4 6 7 8
8 7 7 7 7 7 7 6 6 7 7 7 6 4 4 5 8 3 1 1 3 4 4 4 3 2 2 2 2 2 4 2 6 10 10 10 10 9 5 4 4 3 3 3 3 3 3 3 3 3 3 5 7 7